�N����,����,�~����,�C��,���x,�C��,����,���ϕ���,�ő�u�ԕ���,�ő厞����,���˗�,�I�_���x,�n�����x,�ő啗���N��,DTYPE
"22/06/06","00:10",0.2,18.7,93.2,999.3,299.0,0.3,1.1,336.6,0.00,17.6,19.7,"00:02:02",1
"22/06/06","00:20",0.2,18.7,93.4,999.3,300.1,0.3,1.3,310.0,0.00,17.7,19.5,"00:19:58",1
"22/06/06","00:30",0.0,18.7,93.5,998.9,342.5,0.5,1.4,105.5,0.00,17.7,19.7,"00:28:50",1
"22/06/06","00:40",0.0,18.8,93.6,998.6,305.5,0.3,0.9,321.9,0.00,17.8,19.7,"00:31:52",1
"22/06/06","00:50",0.2,18.9,93.6,998.9,329.9,0.5,1.1,333.7,0.00,17.9,19.5,"00:41:30",1
"22/06/06","01:00",0.0,18.9,93.7,998.4,343.2,0.6,1.4,339.6,0.00,17.9,19.6,"00:56:40",1
"22/06/06","01:10",0.2,18.9,93.8,997.9,33.6,0.5,1.1,344.5,0.00,17.9,19.6,"01:06:42",1
"22/06/06","01:20",0.2,18.8,93.9,997.9,326.9,0.6,2.4,137.1,0.00,17.8,19.6,"01:18:20",1
"22/06/06","01:30",0.0,18.8,94.0,997.7,288.8,0.6,1.9,23.1,0.00,17.9,19.7,"01:20:08",1
"22/06/06","01:40",0.0,18.7,94.0,997.4,82.5,0.6,1.3,208.3,0.00,17.8,19.6,"01:33:40",1
"22/06/06","01:50",0.2,18.7,94.1,997.0,127.4,0.7,2.0,170.8,0.00,17.8,19.5,"01:41:12",1
"22/06/06","02:00",0.4,18.6,94.1,996.7,1.9,0.5,1.7,46.6,0.00,17.7,19.4,"01:56:12",1
"22/06/06","02:10",0.2,18.4,94.2,996.5,75.0,0.8,2.4,342.4,0.00,17.5,19.5,"02:09:24",1
"22/06/06","02:20",0.4,18.3,94.3,996.0,79.3,0.8,2.5,72.3,0.00,17.4,19.6,"02:16:00",1
"22/06/06","02:30",0.6,18.2,94.3,995.8,97.3,0.8,2.2,161.0,0.00,17.3,19.6,"02:25:22",1
"22/06/06","02:40",0.4,18.1,94.3,995.6,71.5,0.7,2.1,82.6,0.00,17.2,19.3,"02:30:16",1
"22/06/06","02:50",1.0,17.8,94.4,995.6,98.0,1.0,2.0,132.8,0.00,16.9,19.5,"02:42:32",1
"22/06/06","03:00",1.4,17.6,94.5,995.6,114.3,0.8,2.4,137.9,0.00,16.7,19.2,"02:51:28",1
"22/06/06","03:10",1.0,17.5,94.6,995.6,100.9,0.7,1.8,116.2,0.00,16.7,19.3,"03:06:16",1
"22/06/06","03:20",0.6,17.4,94.7,994.8,51.2,0.8,1.9,83.6,0.00,16.6,19.2,"03:13:12",1
"22/06/06","03:30",0.4,17.4,94.7,994.6,51.8,0.6,2.2,89.4,0.00,16.6,19.2,"03:27:32",1
"22/06/06","03:40",1.0,17.4,94.8,994.1,42.9,0.7,1.9,108.1,0.00,16.6,19.2,"03:32:34",1
"22/06/06","03:50",0.6,17.4,94.9,994.1,55.9,0.7,2.2,144.9,0.00,16.6,19.1,"03:46:48",1
"22/06/06","04:00",0.4,17.3,94.9,994.1,18.7,0.7,2.4,81.8,0.00,16.5,19.1,"03:50:58",1
"22/06/06","04:10",0.6,17.3,95.0,994.6,354.7,0.8,1.8,122.9,0.00,16.5,19.1,"04:09:20",1
"22/06/06","04:20",1.2,17.3,95.0,993.9,70.5,1.0,2.4,313.0,0.00,16.5,18.9,"04:18:50",1
"22/06/06","04:30",1.2,17.2,95.1,994.1,81.9,1.2,2.9,70.1,0.00,16.4,18.8,"04:20:02",1
"22/06/06","04:40",1.6,17.1,95.2,993.9,35.5,0.8,3.9,143.7,0.00,16.4,18.6,"04:35:26",1
"22/06/06","04:50",2.2,17.1,95.2,994.1,26.0,0.8,3.5,116.4,0.00,16.4,18.7,"04:40:48",1
"22/06/06","05:00",2.6,17.1,95.3,994.4,358.7,0.8,2.1,185.8,0.00,16.4,18.7,"04:52:08",1
"22/06/06","05:10",2.0,17.0,95.4,994.1,30.2,0.8,2.0,80.6,0.00,16.3,18.4,"05:02:40",1
"22/06/06","05:20",2.0,17.0,95.4,993.2,83.1,1.1,2.8,161.5,0.00,16.3,18.1,"05:17:12",1
"22/06/06","05:30",1.4,17.0,95.5,993.0,84.2,1.1,3.2,70.9,0.00,16.3,18.1,"05:20:02",1
"22/06/06","05:40",1.4,17.0,95.6,993.0,108.8,1.2,4.1,60.8,0.00,16.3,18.0,"05:37:36",1
"22/06/06","05:50",1.0,17.1,95.6,992.5,110.7,0.8,2.7,121.3,0.00,16.4,18.2,"05:45:12",1
"22/06/06","06:00",1.2,17.2,95.7,992.7,101.2,1.2,2.9,83.3,0.00,16.5,18.1,"05:56:32",1
"22/06/06","06:10",1.8,17.3,95.6,992.5,112.1,1.2,4.0,63.8,0.00,16.6,18.1,"06:05:04",1
"22/06/06","06:20",1.2,17.4,95.7,992.2,84.0,1.3,2.8,94.9,0.00,16.7,17.8,"06:14:40",1
"22/06/06","06:30",1.2,17.4,95.7,991.8,54.3,1.5,4.0,94.7,0.00,16.7,18.1,"06:20:24",1
"22/06/06","06:40",0.8,17.5,95.7,991.5,137.1,1.2,4.0,156.7,0.00,16.8,17.8,"06:37:04",1
"22/06/06","06:50",0.6,17.5,95.8,991.5,127.2,1.2,3.4,110.7,0.00,16.9,17.9,"06:44:12",1
"22/06/06","07:00",0.6,17.6,95.8,991.5,136.3,1.1,3.4,143.8,0.00,17.0,18.0,"06:59:52",1
"22/06/06","07:10",0.4,17.6,95.8,991.1,104.6,1.7,4.3,139.8,0.00,17.0,18.2,"07:03:28",1
"22/06/06","07:20",0.4,17.7,95.8,991.1,86.5,1.1,2.8,76.6,0.01,17.1,18.1,"07:10:56",1
"22/06/06","07:30",0.4,17.8,95.9,990.6,102.7,1.1,3.5,105.4,0.01,17.2,18.1,"07:26:38",1
"22/06/06","07:40",0.4,17.8,95.9,990.4,119.9,1.0,2.6,149.1,0.00,17.2,18.1,"07:31:08",1
"22/06/06","07:50",0.2,17.9,95.9,990.4,142.1,1.1,3.6,62.5,0.02,17.3,18.1,"07:42:40",1
"22/06/06","08:00",0.2,18.0,95.9,990.4,116.8,1.0,2.6,161.8,0.02,17.4,18.4,"07:50:08",1
"22/06/06","08:10",0.0,18.0,95.9,990.1,87.3,1.5,3.7,61.7,0.00,17.4,18.3,"08:07:24",1
"22/06/06","08:20",0.4,18.1,95.9,989.9,69.7,1.0,2.6,137.3,0.00,17.5,18.1,"08:11:52",1
"22/06/06","08:30",0.0,18.2,95.9,990.1,104.7,1.1,3.1,44.1,0.00,17.6,18.2,"08:20:32",1
"22/06/06","08:40",0.2,18.2,95.9,989.9,120.9,1.0,2.6,56.6,0.00,17.6,18.4,"08:31:04",1
"22/06/06","08:50",0.2,18.2,95.8,989.6,132.1,1.2,4.0,152.6,0.01,17.6,18.3,"08:46:50",1
"22/06/06","09:00",0.2,18.3,95.9,989.6,104.6,1.3,4.0,74.0,0.03,17.7,18.3,"08:57:30",1
"22/06/06","09:10",0.2,18.4,95.8,989.6,152.6,1.1,2.4,199.9,0.02,17.8,18.2,"09:00:08",1
"22/06/06","09:20",0.4,18.3,95.7,989.4,159.4,1.2,2.4,158.8,0.01,17.6,18.3,"09:12:18",1
"22/06/06","09:30",0.6,18.3,95.8,989.6,108.8,0.8,1.6,87.4,0.01,17.7,18.4,"09:22:04",1
"22/06/06","09:40",0.6,18.3,95.8,989.4,131.2,1.0,2.4,151.2,0.02,17.7,18.2,"09:35:28",1
"22/06/06","09:50",0.8,18.3,95.8,989.4,135.8,1.1,3.3,124.6,0.02,17.7,18.3,"09:41:02",1
"22/06/06","10:00",0.6,18.4,95.9,989.4,122.5,1.0,2.5,181.7,0.04,17.8,18.5,"09:51:02",1
"22/06/06","10:10",1.0,18.5,95.8,989.6,85.0,0.8,2.2,36.0,0.06,17.9,18.2,"10:09:12",1
"22/06/06","10:20",0.8,18.4,95.8,989.2,117.1,0.8,2.7,141.6,0.05,17.8,18.5,"10:13:12",1
"22/06/06","10:30",0.8,18.3,95.9,989.6,83.2,0.8,1.7,126.8,0.05,17.7,18.5,"10:20:08",1
"22/06/06","10:40",0.6,18.3,95.9,989.6,82.3,0.8,2.6,73.4,0.04,17.7,18.6,"10:38:50",1
"22/06/06","10:50",0.4,18.6,96.0,989.9,62.8,0.5,1.7,112.3,0.06,18.0,18.6,"10:42:38",1
"22/06/06","11:00",0.2,18.5,96.0,989.2,63.3,1.1,2.2,64.8,0.07,17.9,18.3,"10:55:56",1
"22/06/06","11:10",0.4,18.8,96.0,989.2,127.4,0.7,2.5,100.9,0.08,18.2,18.3,"11:08:02",1
"22/06/06","11:20",0.2,19.0,95.9,988.9,87.4,0.6,1.7,30.8,0.09,18.4,18.5,"11:17:08",1
"22/06/06","11:30",0.2,19.4,95.9,988.9,89.0,0.6,1.9,140.3,0.12,18.8,18.7,"11:25:22",1
"22/06/06","11:40",0.2,19.1,95.7,988.5,132.3,1.1,2.4,157.4,0.10,18.4,18.6,"11:35:02",1
"22/06/06","11:50",0.2,19.1,95.8,988.5,132.8,1.3,4.1,117.9,0.08,18.5,18.3,"11:46:34",1
"22/06/06","12:00",0.2,19.0,95.6,988.2,109.8,0.8,2.4,117.7,0.07,18.3,18.6,"11:59:54",1
"22/06/06","12:10",0.2,19.0,95.6,988.5,100.6,1.1,2.5,61.8,0.08,18.3,18.6,"12:09:20",1
"22/06/06","12:20",0.0,19.2,95.8,988.2,85.9,1.1,2.1,73.2,0.12,18.6,18.5,"12:18:48",1
"22/06/06","12:30",0.2,19.3,95.6,987.8,80.7,1.0,2.9,52.0,0.10,18.6,18.7,"12:23:52",1
"22/06/06","12:40",0.0,19.2,95.6,988.0,72.9,1.0,3.5,114.9,0.08,18.5,18.6,"12:35:12",1
"22/06/06","12:50",0.0,19.3,95.3,987.5,67.9,0.8,3.3,51.1,0.07,18.6,18.7,"12:48:48",1
"22/06/06","13:00",0.0,19.4,95.3,987.5,103.2,0.8,1.8,91.0,0.08,18.7,18.6,"12:51:44",1
"22/06/06","13:10",0.0,19.6,95.0,987.5,111.8,0.7,3.3,200.6,0.07,18.8,18.5,"13:09:04",1
"22/06/06","13:20",0.2,19.7,95.2,986.8,82.9,0.7,1.9,93.3,0.09,19.0,18.7,"13:10:16",1
"22/06/06","13:30",0.0,19.5,95.0,987.0,78.7,1.1,2.2,28.5,0.09,18.7,18.7,"13:24:48",1
"22/06/06","13:40",0.0,19.5,94.2,987.0,135.0,1.0,3.2,135.0,0.05,18.6,18.7,"13:32:24",1
"22/06/06","13:50",0.0,19.8,94.5,987.0,49.1,1.1,3.4,165.0,0.06,18.9,18.7,"13:42:00",1
"22/06/06","14:00",0.2,19.8,94.2,987.0,134.9,1.1,3.5,164.6,0.06,18.9,18.6,"13:55:28",1
"22/06/06","14:10",0.0,19.8,94.0,987.0,96.0,1.0,3.4,123.9,0.07,18.8,18.9,"14:03:44",1
"22/06/06","14:20",0.2,19.9,93.9,987.3,338.7,0.5,1.7,90.9,0.06,18.9,18.9,"14:19:04",1
"22/06/06","14:30",0.2,20.0,93.6,987.3,32.3,0.6,1.6,335.7,0.09,19.0,18.7,"14:29:20",1
"22/06/06","14:40",0.2,19.7,93.6,987.3,328.3,1.1,1.9,321.2,0.05,18.7,18.9,"14:39:44",1
"22/06/06","14:50",0.2,19.8,93.6,987.0,317.3,1.0,1.8,337.4,0.07,18.8,18.9,"14:42:32",1
"22/06/06","15:00",0.2,19.9,93.5,987.0,349.1,1.2,2.0,350.7,0.11,18.9,18.8,"14:57:04",1
"22/06/06","15:10",0.0,20.0,93.4,987.3,354.1,0.8,2.4,3.1,0.09,18.9,18.9,"15:04:24",1
"22/06/06","15:20",0.2,19.9,93.6,987.5,21.4,0.6,2.1,356.8,0.09,18.9,18.9,"15:13:52",1
"22/06/06","15:30",0.2,19.9,93.4,987.8,344.4,1.3,2.8,354.0,0.11,18.8,19.0,"15:28:08",1
"22/06/06","15:40",0.2,19.8,93.5,987.5,341.9,1.7,2.6,336.3,0.08,18.8,18.9,"15:33:20",1
"22/06/06","15:50",0.0,19.9,93.6,987.8,345.1,1.0,1.9,354.8,0.08,18.9,19.1,"15:44:56",1
"22/06/06","16:00",0.2,20.0,93.5,987.5,30.9,0.5,1.3,119.3,0.09,19.0,19.0,"15:59:20",1
"22/06/06","16:10",0.2,20.1,93.5,987.5,142.0,0.5,1.1,180.5,0.10,19.1,19.1,"16:01:04",1
"22/06/06","16:20",0.0,19.8,93.4,987.3,190.3,0.5,0.9,191.3,0.04,18.7,18.9,"16:11:44",1
"22/06/06","16:30",0.2,19.7,93.4,987.8,153.0,0.5,1.1,139.0,0.03,18.6,19.1,"16:28:40",1
"22/06/06","16:40",0.0,19.9,93.6,987.5,175.3,0.7,1.7,136.3,0.06,18.9,19.2,"16:32:00",1
"22/06/06","16:50",0.0,19.7,93.5,988.0,152.2,0.6,1.7,193.8,0.03,18.7,19.0,"16:40:48",1
"22/06/06","17:00",0.2,19.6,93.7,987.3,138.3,0.5,1.2,144.7,0.03,18.6,19.1,"16:50:08",1
"22/06/06","17:10",0.0,19.5,93.6,987.5,184.6,0.3,1.2,350.6,0.03,18.5,19.2,"17:08:24",1
"22/06/06","17:20",0.2,19.4,93.7,987.8,291.2,0.5,1.2,338.0,0.01,18.4,19.1,"17:19:20",1
"22/06/06","17:30",0.0,19.3,93.9,987.8,320.8,0.8,1.9,341.6,0.01,18.3,19.3,"17:21:44",1
"22/06/06","17:40",0.0,19.3,94.0,988.5,310.2,1.0,1.7,327.9,0.00,18.4,19.2,"17:32:08",1
"22/06/06","17:50",0.0,19.1,94.1,988.2,308.4,0.8,1.8,313.5,0.00,18.2,19.2,"17:40:32",1
"22/06/06","18:00",0.2,19.0,94.3,988.0,333.1,0.8,1.6,344.6,0.00,18.1,19.2,"17:52:24",1
"22/06/06","18:10",0.0,19.0,94.4,988.0,270.3,0.6,1.2,342.2,0.00,18.1,19.2,"18:03:12",1
"22/06/06","18:20",0.2,19.0,94.4,988.0,214.2,0.5,1.0,195.3,0.00,18.1,19.2,"18:15:52",1
"22/06/06","18:30",0.0,19.0,94.5,988.5,304.9,0.5,1.3,343.8,0.00,18.1,19.1,"18:25:52",1
"22/06/06","18:40",0.0,19.0,94.6,988.2,315.9,0.7,1.4,339.6,0.00,18.2,19.2,"18:30:08",1
"22/06/06","18:50",0.0,18.9,94.7,988.7,340.6,0.7,2.0,338.5,0.00,18.1,19.2,"18:43:28",1
"22/06/06","19:00",0.0,18.8,94.8,988.7,318.3,0.6,1.3,336.1,0.00,18.0,19.2,"18:55:52",1
"22/06/06","19:10",0.0,18.8,94.9,988.7,281.9,0.3,0.9,329.9,0.00,18.0,19.1,"19:00:16",1
"22/06/06","19:20",0.0,18.7,95.0,989.2,303.7,0.8,1.6,319.2,0.00,17.9,19.1,"19:16:10",1
"22/06/06","19:30",0.0,18.5,95.0,988.7,268.8,0.8,1.7,235.7,0.00,17.7,19.2,"19:27:28",1
"22/06/06","19:40",0.2,18.5,95.2,988.7,288.1,0.8,1.6,323.5,0.00,17.8,19.2,"19:34:32",1
"22/06/06","19:50",0.4,18.6,95.3,988.9,332.8,1.1,2.0,348.5,0.00,17.9,19.2,"19:44:56",1
"22/06/06","20:00",0.6,18.4,95.3,989.4,337.6,1.3,2.6,323.6,0.00,17.7,19.2,"19:53:52",1
"22/06/06","20:10",1.4,18.3,95.4,989.4,339.2,1.1,1.8,340.5,0.00,17.6,19.2,"20:09:20",1
"22/06/06","20:20",1.2,18.2,95.5,989.6,323.5,1.6,2.8,334.3,0.00,17.5,19.1,"20:15:28",1
"22/06/06","20:30",0.2,18.1,95.7,989.9,319.4,1.0,1.3,320.1,0.00,17.4,18.9,"20:21:28",1
"22/06/06","20:40",0.0,18.1,95.7,989.6,294.6,0.6,1.1,302.0,0.00,17.4,19.1,"20:30:32",1
"22/06/06","20:50",0.0,18.1,95.7,989.4,269.0,0.3,0.8,244.2,0.00,17.4,19.1,"20:42:24",1
"22/06/06","21:00",0.0,17.9,95.8,989.9,292.9,0.7,1.2,311.1,0.00,17.3,19.1,"20:54:00",1
"22/06/06","21:10",0.2,17.9,95.9,989.6,309.4,0.8,1.4,338.5,0.00,17.3,19.1,"21:07:04",1
"22/06/06","21:20",0.0,17.9,96.0,990.1,338.1,0.7,1.6,349.1,0.00,17.3,19.2,"21:11:36",1
"22/06/06","21:30",0.0,17.9,96.0,990.1,311.5,0.5,1.1,345.8,0.00,17.3,18.8,"21:28:16",1
"22/06/06","21:40",0.0,17.9,96.1,990.4,284.6,0.2,0.9,324.6,0.00,17.3,19.0,"21:30:08",1
"22/06/06","21:50",0.0,17.9,96.1,990.4,247.8,0.3,1.1,297.3,0.00,17.3,19.2,"21:49:04",1
"22/06/06","22:00",0.0,17.9,96.2,990.4,272.0,0.5,0.9,241.7,0.00,17.3,18.9,"21:59:36",1
"22/06/06","22:10",0.0,18.1,96.2,990.4,248.2,0.7,1.8,226.0,0.00,17.5,19.0,"22:02:56",1
"22/06/06","22:20",0.0,18.2,96.2,990.6,306.1,0.8,1.7,355.9,0.00,17.6,19.0,"22:15:28",1
"22/06/06","22:30",0.0,18.1,96.2,990.6,310.3,0.7,1.6,316.6,0.00,17.5,18.9,"22:24:16",1
"22/06/06","22:40",0.0,18.3,96.3,990.6,346.8,0.7,1.4,61.1,0.00,17.7,19.0,"22:36:00",1
"22/06/06","22:50",0.0,18.2,96.3,990.8,301.9,0.8,2.2,310.1,0.00,17.6,19.1,"22:45:52",1
"22/06/06","23:00",0.0,18.1,96.3,990.6,284.6,1.1,2.4,221.2,0.00,17.5,19.2,"22:57:36",1
"22/06/06","23:10",0.0,18.0,96.5,990.8,280.0,1.2,2.9,239.6,0.00,17.5,19.1,"23:06:08",1
"22/06/06","23:20",0.0,17.9,96.5,991.3,290.4,1.5,3.1,310.7,0.00,17.4,18.8,"23:19:04",1
"22/06/06","23:30",0.0,17.8,96.6,991.3,303.1,1.6,2.9,251.2,0.00,17.3,19.1,"23:24:48",1
"22/06/06","23:40",0.0,17.8,96.6,991.5,311.9,1.6,3.1,334.1,0.00,17.3,19.0,"23:31:20",1
"22/06/06","23:50",0.0,17.7,96.6,991.3,300.4,1.2,1.8,308.5,0.00,17.2,19.0,"23:44:32",1
"22/06/06","24:00",0.0,17.8,96.6,991.5,318.8,1.0,1.7,344.3,0.00,17.3,19.0,"23:52:40",1
